Regional Weather Roundup
Issued by NWS

Home | Current Version | Previous Version | Text Only | Print | Product List | Glossary Off
Versions: 1 2 3 4 5 6 7 8 9 10 11 12 13 14 15 16 17 18 19 20 21 22 23 24 25 26 27 28 29 30 31 32 33 34 35 36 37 38 39 40 41 42 43 44 45 46 47 48 49 50

000
ASUS43 KOAX 290510
RWRNE

WEATHER ROUNDUP FOR NEBRASKA
NATIONAL WEATHER SERVICE OMAHA NE
1200 AM CDT WED MAR 29 2017

NOTES: SATELLITE DATA IS BEING USED TO AUGMENT CLOUD COVER ABOVE
       12000 FEET.
       "FAIR" INDICATES FEW OR NO CLOUDS BELOW 12,000 FEET WITH NO
       SIGNIFICANT WEATHER AND/OR OBSTRUCTIONS TO VISIBILITY.

  * THESE STATIONS DO NOT REPORT WEATHER SUCH AS RAIN...SNOW OR FOG.

NEZ001>004-019>022-054>056-290600-
NEBRASKA PANHANDLE

CITY           SKY/WX    TMP DP  RH WIND       PRES   REMARKS
SCOTTSBLUFF    LGT RAIN  40  36  86 NE5       30.11F
ALLIANCE       CLOUDY    38  37  97 E7        30.11F WCI  33
CHADRON        CLOUDY    41  37  86 SE3       30.14S
KIMBALL        DRIZZLE   37  37 100 NE5       30.10R WCI  33
SIDNEY         LGT RAIN  39  37  92 NE12      30.10R WCI  32
$$

NEZ057>060-069>072-079>082-290600-
SOUTHWEST NEBRASKA

CITY           SKY/WX    TMP DP  RH WIND       PRES   REMARKS
NORTH PLATTE   LGT RAIN  44  42  93 N6        30.09R FOG
IMPERIAL       LGT RAIN  42  40  92 NE15      30.06F FOG
LEXINGTON      LGT RAIN  43  41  93 NE9       30.05F
MCCOOK         CLOUDY    43  43 100 NE12      30.04S FOG
OGALLALA       LGT RAIN  42  40  93 NE9       30.10R
$$

NEZ005>010-023>029-035>040-094-290600-
NORTH CENTRAL NEBRASKA

CITY           SKY/WX    TMP DP  RH WIND       PRES   REMARKS
VALENTINE      CLOUDY    42  39  89 N3        30.13S
AINSWORTH      DRIZZLE   42  42 100 N3        30.12S
BROKEN BOW     LGT RAIN  45  40  82 CALM      30.09R
O`NEILL        CLOUDY    47  41  79 N6        30.10R
ORD            CLOUDY    45  40  82 E5        30.08R
THEDFORD       LGT RAIN  43  42  97 N9        30.12R
$$

NEZ041-046>049-061>064-073>077-083>087-290600-
SOUTH CENTRAL NEBRASKA

CITY           SKY/WX    TMP DP  RH WIND       PRES   REMARKS
GRAND ISLAND   LGT RAIN  43  43 100 NE10      30.07R FOG
AURORA         DRIZZLE   43  43 100 NE8       30.07R
HASTINGS       LGT RAIN  43  41  93 E13       30.07R FOG
HEBRON         LGT RAIN  44  43  97 NE12      30.03S
HOLDREGE       DRIZZLE   42  41  95 NE13      30.04F
KEARNEY *      CLOUDY    43  39  87 NE12      30.07S
YORK           LGT RAIN  45  45 100 NE9       30.08R
$$

NEZ011>018-030>034-042>045-290600-
NORTHEAST NEBRASKA

CITY           SKY/WX    TMP DP  RH WIND       PRES   REMARKS
NORFOLK        CLOUDY    46  41  82 NE5       30.09F
ALBION         CLOUDY    46  41  84 NE3       30.09F
BLAIR          CLOUDY    48  42  82 NE7       30.09R
FREMONT        DRIZZLE   47  42  83 NE5       30.10R
TEKAMAH        CLOUDY    47  42  83 NE8       30.09F
WAYNE          CLOUDY    46  44  92 NE5       30.10F
$$

NEZ050>053-065>068-078-088>093-290600-
SOUTHEAST NEBRASKA

CITY           SKY/WX    TMP DP  RH WIND       PRES   REMARKS
LINCOLN        LGT RAIN  47  44  90 NE8       30.09S
OMAHA EPPLEY   CLOUDY    49  41  74 E12       30.08S
BEATRICE       RAIN      47  46  96 NE8       30.05F
FALLS CITY     CLOUDY    51  48  89 E10       30.03F
NEBRASKA CITY  CLOUDY    49  42  78 E10       30.07R
PLATTSMOUTH    CLOUDY    48  41  75 E8        30.08R
$$

NEZ044-045-051>053-067-290600-
OMAHA AREA

CITY           SKY/WX    TMP DP  RH WIND       PRES   REMARKS
OMAHA EPPLEY   CLOUDY    49  41  74 E12       30.08S
BLAIR          CLOUDY    48  42  82 NE7       30.09R
FREMONT        DRIZZLE   47  42  83 NE5       30.10R
MILLARD        CLOUDY    51  44  76 CALM      30.09R
OFFUTT AFB     CLOUDY    48  42  78 NE7       30.07F
PLATTSMOUTH    CLOUDY    48  41  75 E8        30.08R
WAHOO          DRIZZLE   47  43  87 E6        30.09R
$$




USA.gov is the U.S. government's official web portal to all federal, state and local government web resources and services.